Location: Zagreb
(45.8000°N, 16.0000°E)
Time: 02:11:19
(UTC+01:00)

S-56A Canister/Altair - Pass Details

Date: 03 October 2020
Orbit: 633 x 2499 km, 38.9° (Epoch: 25 October)

Event Time Altitude Azimuth Distance (km) Brightness Sun altitude
Rises 18:42:56 0° 279° (W) 6,179 14.3 -2.8°
Reaches altitude 10° 18:47:16 10° 274° (W) 5,119 13.7 -3.5°
Maximum altitude 19:00:49 48° 207° (SSW) 2,612 10.5 -5.9°
Drops below altitude 10° 19:11:04 10° 138° (SE) 3,921 10.7 -7.7°
Sets 19:13:56 0° 132° (SE) 4,670 11.1 -8.2°
